Phuket, Thailand

12:08 PM +07 on May 25, 2017 (GMT +0700)
Phuket International

Weather History for VTSP - September, 2012

Change the Weather History Date:

Monday, September 17, 2012

  Actual Average Record
Temperature  
Mean Temperature 80 °F -  
Max Temperature 87 °F 87 °F 95 °F (1997)
Min Temperature 73 °F 76 °F 71 °F (2007)
Cooling Degree Days 15    
Growing Degree Days 30 (Base 50)    
Moisture  
Dew Point 74 °F    
Average Humidity 88    
Maximum Humidity 94    
Minimum Humidity 74    
Precipitation  
Precipitation 0.47 in 0.50 in - ()
Sea Level Pressure  
Sea Level Pressure 29.87 in    
Wind  
Wind Speed 2 mph ()    
Max Wind Speed 14 mph    
Max Gust Speed -    
Visibility 5.6 miles    
Events Rain    
Averages and records for this station are not official NWS values.
T = Trace of Precipitation, MM = Missing Value Source: Averaged Metar Reports

Daily Weather History Graph

Daily Weather History Graph

Search for Another Location

Airport or City:

Trip Planner

Search our weather history database for the weather conditions in past years. The results will help you decide how hot, cold, wet, or windy it might be!

Date:

Astronomy

Sep. 17, 2012 Rise Set
Actual Time 6:16 AM +07 6:25 PM +07
Civil Twilight 5:55 AM +07 6:46 PM +07
Nautical Twilight 5:31 AM +07 7:10 PM +07
Astronomical Twilight 5:07 AM +07 7:35 PM +07
Moon 7:03 AM +07 (9/17) 7:19 PM +07 (9/17)
Length of Visible Light 12h 50m
Length of Day
12h 08m
New Moon, 2% of the Moon is Illuminated
Sep 17
New Moon
Sep 23
First Quarter
Sep 30
Full
Oct 8
Last Quarter
Oct 15
New

Hourly Weather History & Observations

Time (+07) Temp. Heat Index Dew Point Humidity Pressure Visibility Wind Dir Wind Speed Gust Speed Precip Events Conditions
12:00 AM 77.0 °F - 73.4 °F 89% 29.89 in 5.6 mi Calm Calm - N/A   Mostly Cloudy
12:30 AM 77.0 °F - 75.2 °F 94% 29.89 in 5.6 mi Calm Calm - N/A   Mostly Cloudy
1:00 AM 78 °F - 76 °F 94% 29.84 in 5 mi Calm Calm - -   Mist
1:00 AM 77.0 °F - 73.4 °F 89% 29.89 in 5.0 mi Calm Calm - N/A   Mostly Cloudy
1:30 AM 77.0 °F - 75.2 °F 94% 29.89 in 5.0 mi Calm Calm - N/A   Mostly Cloudy
2:00 AM 77.0 °F - 75.2 °F 94% 29.86 in 5.0 mi Calm Calm - N/A   Mostly Cloudy
2:30 AM 77.0 °F - 75.2 °F 94% 29.86 in 5.0 mi Calm Calm - N/A   Mostly Cloudy
3:00 AM 77.0 °F - 75.2 °F 94% 29.86 in 5.0 mi Calm Calm - N/A   Mostly Cloudy
3:30 AM 77.0 °F - 75.2 °F 94% 29.86 in 5.0 mi Calm Calm - N/A   Mostly Cloudy
4:00 AM 77.0 °F - 75.2 °F 94% 29.86 in 5.6 mi Calm Calm - N/A   Mostly Cloudy
4:30 AM 77.0 °F - 73.4 °F 89% 29.86 in 5.6 mi Calm Calm - N/A   Mostly Cloudy
5:00 AM 77.0 °F - 73.4 °F 89% 29.86 in 5.6 mi Calm Calm - N/A   Mostly Cloudy
5:30 AM 75.2 °F - 73.4 °F 94% 29.86 in 5.6 mi Calm Calm - N/A   Mostly Cloudy
6:00 AM 75.2 °F - 73.4 °F 94% 29.86 in 5.6 mi Calm Calm - N/A   Mostly Cloudy
6:30 AM 75.2 °F - 73.4 °F 94% 29.86 in 5.0 mi Calm Calm - N/A   Mostly Cloudy
7:00 AM 77 °F - 75 °F 92% 29.83 in 6 mi Calm Calm - -   Scattered Clouds
7:00 AM 77.0 °F - 75.2 °F 94% 29.89 in 5.6 mi Calm Calm - N/A   Mostly Cloudy
7:30 AM 78.8 °F - 75.2 °F 89% 29.89 in 5.6 mi Calm Calm - N/A   Mostly Cloudy
8:00 AM 80.6 °F 87.1 °F 77.0 °F 89% 29.89 in 5.6 mi East 6.9 mph - N/A   Mostly Cloudy
8:30 AM 82.4 °F 89.5 °F 75.2 °F 79% 29.92 in 6.2 mi East 5.8 mph - N/A   Mostly Cloudy
9:00 AM 84.2 °F 92.3 °F 75.2 °F 74% 29.92 in 6.2 mi East 5.8 mph - N/A   Mostly Cloudy
9:30 AM 82.4 °F 89.5 °F 75.2 °F 79% 29.89 in 6.2 mi East 4.6 mph - N/A   Mostly Cloudy
10:00 AM 73.4 °F - 71.6 °F 94% 29.95 in 3.1 mi WSW 13.8 mph - N/A Rain Rain
10:30 AM 77.0 °F - 71.6 °F 83% 29.95 in 5.0 mi West 9.2 mph - N/A Rain Light Rain
11:00 AM 77.0 °F - 71.6 °F 83% 29.92 in 5.0 mi WSW 9.2 mph - N/A   Mostly Cloudy
11:30 AM 77.0 °F - 71.6 °F 83% 29.92 in 5.0 mi WSW 6.9 mph - N/A Rain Light Rain
12:00 PM 78.8 °F - 73.4 °F 83% 29.92 in 5.0 mi SW 6.9 mph - N/A Rain Light Rain
12:30 PM 78.8 °F - 73.4 °F 83% 29.92 in 5.0 mi WNW 5.8 mph - N/A Rain Light Rain
1:00 PM 79 °F - 75 °F 83% 29.88 in 5 mi Calm Calm - - Rain Light Rain
1:00 PM 78.8 °F - 73.4 °F 83% 29.89 in 5.0 mi WSW 5.8 mph - N/A Rain Light Rain
1:30 PM 78.8 °F - 73.4 °F 83% 29.86 in 6.2 mi WSW 3.5 mph - N/A   Mostly Cloudy
2:00 PM 80.6 °F 85.4 °F 73.4 °F 79% 29.86 in 6.2 mi WSW 9.2 mph - N/A   Mostly Cloudy
2:30 PM 80.6 °F 85.4 °F 73.4 °F 79% 29.86 in 6.2 mi West 5.8 mph - N/A   Mostly Cloudy
3:00 PM 80.6 °F 85.4 °F 73.4 °F 79% 29.83 in 6.2 mi WSW 5.8 mph - N/A   Mostly Cloudy
3:30 PM 80.6 °F 85.4 °F 73.4 °F 79% 29.83 in 6.2 mi SW 5.8 mph - N/A   Mostly Cloudy
4:00 PM 80.6 °F 85.4 °F 73.4 °F 79% 29.83 in 6.2 mi SW 3.5 mph - N/A   Mostly Cloudy
4:30 PM 82.4 °F 88.2 °F 73.4 °F 74% 29.83 in 6.2 mi WSW 5.8 mph - N/A   Mostly Cloudy
5:00 PM 80.6 °F 85.4 °F 73.4 °F 79% 29.83 in 6.2 mi WNW 8.1 mph - N/A   Mostly Cloudy
5:30 PM 77.0 °F - 71.6 °F 83% 29.80 in 6.2 mi WSW 3.5 mph - N/A   Mostly Cloudy
6:00 PM 77.0 °F - 73.4 °F 89% 29.80 in 6.2 mi East 3.5 mph - N/A   Mostly Cloudy
6:30 PM 77.0 °F - 71.6 °F 83% 29.80 in 6.2 mi NNW 3.5 mph - N/A   Mostly Cloudy
7:00 PM 77 °F - 74 °F 89% 29.77 in 6 mi Calm Calm - -   Partly Cloudy
7:00 PM 77.0 °F - 71.6 °F 83% 29.83 in 6.2 mi West 3.5 mph - N/A   Mostly Cloudy
7:30 PM 75.2 °F - 71.6 °F 89% 29.83 in 6.2 mi Calm Calm - N/A   Mostly Cloudy
8:00 PM 75.2 °F - 73.4 °F 94% 29.83 in 6.2 mi Calm Calm - N/A   Mostly Cloudy
8:30 PM 75.2 °F - 73.4 °F 94% 29.86 in 5.6 mi Calm Calm - N/A   Mostly Cloudy
9:00 PM 75.2 °F - 73.4 °F 94% 29.89 in 5.6 mi Calm Calm - N/A   Mostly Cloudy
9:30 PM 75.2 °F - 73.4 °F 94% 29.89 in 5.6 mi Calm Calm - N/A   Mostly Cloudy
10:00 PM 75.2 °F - 73.4 °F 94% 29.89 in 5.6 mi Calm Calm - N/A   Mostly Cloudy
10:30 PM 75.2 °F - 73.4 °F 94% 29.89 in 5.6 mi Calm Calm - N/A   Mostly Cloudy
11:00 PM 75.2 °F - 73.4 °F 94% 29.89 in 5.6 mi Calm Calm - N/A   Mostly Cloudy
11:30 PM 75.2 °F - 73.4 °F 94% 29.89 in 5.6 mi Calm Calm - N/A   Mostly Cloudy